Date String (YYYY-MM-DD hh:mm:ss) UTC,Instrument flags,absolute air pressure of the measurement (hPa),sample flow rate (lpm),inlet stack bypass flow (lpm),air temperature of the measurement (°C),ambient temperature measured by the external sensor (°C),aerosol sample conditioner tube jacket temperature (°C),OPC LED temperature (°C),internal box temperature (°C),relative humidity of the measurement (%),span deviation,mass concentration of particles derived from Lorenz-Mie calculation of OPC scattering (μg/m³),mass concentration of particles derived from Lorenz-Mie calculation of OPC scattering (μg/m³),mass concentration of particles derived from Lorenz-Mie calculation of OPC scattering (μg/m³)
DateTimeUTC,F1_M11,P_M11,Q1_M11,Q2_M11,T1_M11,T2_M11,T3_M11,T4_M11,T5_M11,U1_M11,ZSPAN_M11,X2_M11,X0_M11,X1_M11
2023-10-15 13:00:00,SystemResetWarning,0839.2,5.00,000.00,024.4,022.8,000.0,032.9,026.1,15.6,0000.0,0004.05,0007.20,0003.78
2023-10-15 13:01:00,SystemResetWarning,0839.1,5.01,000.00,024.4,022.8,000.0,032.9,026.1,15.5,0000.0,0004.07,0007.17,0003.79
2023-10-15 13:02:00,SystemResetWarning,0839.2,4.99,000.00,024.4,022.8,000.0,032.9,026.1,15.5,0000.0,0004.11,0007.04,0003.82
2023-10-15 13:03:00,SystemResetWarning,0839.2,4.99,000.00,024.4,022.8,000.0,032.9,026.1,15.5,0000.0,0004.19,0007.69,0003.90
2023-10-15 13:04:00,SystemResetWarning,0839.2,4.99,000.00,024.4,022.8,000.0,032.9,026.1,15.4,0003.7,0004.32,0007.68,0004.02
2023-10-15 13:05:00,SystemResetWarning,0839.1,5.00,000.00,024.4,022.8,000.0,032.9,026.1,15.4,0003.6,0004.43,0007.82,0004.13
2023-10-15 13:06:00,SystemResetWarning,0839.1,5.00,000.00,024.4,022.8,000.0,032.9,026.0,15.4,0003.0,0004.51,0007.94,0004.21
2023-10-15 13:07:00,SystemResetWarning,0839.2,5.00,000.00,024.4,022.7,000.0,032.9,026.0,15.3,0002.1,0004.62,0008.09,0004.28
2023-10-15 13:08:00,SystemResetWarning,0839.2,5.01,000.00,024.3,022.7,000.0,032.9,026.0,15.4,0002.0,0004.69,0008.20,0004.36
2023-10-15 13:09:00,SystemResetWarning,0839.1,5.00,000.00,024.3,022.8,000.0,032.8,026.0,15.5,0002.0,0004.77,0008.26,0004.44
2023-10-15 13:10:00,SystemResetWarning,0839.2,5.00,000.00,024.3,022.8,000.0,032.8,026.0,15.5,0002.0,0004.86,0008.36,0004.51
2023-10-15 13:11:00,SystemResetWarning,0839.2,5.00,000.00,024.3,022.8,000.0,032.8,026.0,15.6,0002.0,0004.97,0008.51,0004.61
2023-10-15 13:12:00,SystemResetWarning,0839.2,5.00,000.00,024.3,022.7,000.0,032.8,025.9,15.3,0002.2,0005.09,0008.74,0004.71
2023-10-15 13:13:00,SystemResetWarning,0839.2,4.99,000.00,024.3,022.7,000.0,032.8,025.9,15.2,0001.8,0005.15,0009.23,0004.76
2023-10-15 13:14:00,SystemResetWarning,0839.2,4.99,000.00,024.2,022.7,000.0,032.8,025.9,15.2,0002.5,0005.15,0008.93,0004.76
2023-10-15 13:15:00,SystemResetWarning,0839.2,5.00,000.00,024.2,022.7,000.0,032.8,025.9,15.2,0003.0,0005.09,0008.86,0004.70
2023-10-15 13:16:00,SystemResetWarning,0839.2,5.01,000.00,024.2,022.7,000.0,032.8,025.9,15.2,0003.0,0005.02,0008.78,0004.63
2023-10-15 13:17:00,SystemResetWarning,0839.2,5.01,000.00,024.2,022.7,000.0,032.7,026.0,15.1,0002.8,0004.96,0008.77,0004.57
2023-10-15 13:18:00,SystemResetWarning,0839.2,5.01,000.00,024.2,022.7,000.0,032.7,026.0,15.1,0003.1,0004.86,0008.67,0004.51
2023-10-15 13:19:00,SystemResetWarning,0839.2,5.00,000.00,024.2,022.7,000.0,032.7,026.0,15.1,0003.4,0004.79,0008.67,0004.45
2023-10-15 13:20:00,SystemResetWarning,0839.2,5.00,000.00,024.2,022.7,000.0,032.7,025.9,15.1,0001.0,0004.69,0008.56,0004.37
2023-10-15 13:21:00,SystemResetWarning,0839.2,4.99,000.00,024.2,022.7,000.0,032.7,025.9,15.2,0000.0,0004.62,0008.48,0004.30
2023-10-15 13:22:00,SystemResetWarning,0839.2,4.99,000.00,024.2,022.7,000.0,032.7,025.9,15.1,0000.0,0004.53,0008.41,0004.22
2023-10-15 13:23:00,SystemResetWarning,0839.2,5.00,000.00,024.2,022.7,000.0,032.7,025.9,15.2,0000.0,0004.42,0008.24,0004.14
2023-10-15 13:24:00,SystemResetWarning,0839.3,5.01,000.00,024.2,022.7,000.0,032.7,025.9,15.1,0000.0,0004.32,0007.81,0004.06
2023-10-15 13:25:00,SystemResetWarning,0839.3,5.01,000.00,024.2,022.7,000.0,032.7,025.9,15.2,0000.0,0004.27,0008.04,0004.01
2023-10-15 13:26:00,SystemResetWarning,0839.2,5.00,000.00,024.2,022.7,000.0,032.7,025.9,15.3,0000.0,0004.23,0007.89,0003.99
2023-10-15 13:27:00,SystemResetWarning,0839.2,5.00,000.00,024.2,022.7,000.0,032.7,025.9,15.3,0000.0,0004.24,0008.01,0004.00
2023-10-15 13:28:00,SystemResetWarning,0839.2,5.00,000.00,024.2,022.6,000.0,032.7,025.9,15.3,0000.0,0004.25,0008.03,0003.98
2023-10-15 13:29:00,SystemResetWarning,0839.2,4.99,000.00,024.2,022.6,000.0,032.7,025.9,15.2,0000.0,0004.23,0008.09,0003.94
2023-10-15 13:30:00,SystemResetWarning,0839.2,4.99,000.00,024.2,022.6,000.0,032.7,025.9,15.2,0000.0,0004.20,0007.96,0003.91
2023-10-15 13:31:00,SystemResetWarning,0839.2,4.99,000.00,024.2,022.6,000.0,032.7,025.9,15.2,0000.0,0004.20,0007.99,0003.90
2023-10-15 13:32:00,SystemResetWarning,0839.2,5.01,000.00,024.2,022.6,000.0,032.7,025.9,15.3,0000.0,0004.18,0007.98,0003.89
2023-10-15 13:33:00,SystemResetWarning,0839.2,5.00,000.00,024.2,022.6,000.0,032.7,025.9,15.3,0000.0,0004.18,0007.89,0003.90
2023-10-15 13:34:00,SystemResetWarning,0839.2,5.00,000.00,024.2,022.6,000.0,032.7,025.9,15.3,0000.0,0004.19,0007.89,0003.90
2023-10-15 13:35:00,SystemResetWarning,0839.3,5.00,000.00,024.2,022.6,000.0,032.6,025.9,15.4,0000.0,0004.23,0007.93,0003.94
2023-10-15 13:36:00,SystemResetWarning,0839.2,5.00,000.00,024.1,022.5,000.0,032.7,025.9,15.4,0000.0,0004.29,0007.62,0003.98
2023-10-15 13:37:00,SystemResetWarning,0839.2,5.00,000.00,024.1,022.5,000.0,032.7,025.8,15.5,0003.4,0004.31,0007.59,0004.00
2023-10-15 13:38:00,SystemResetWarning,0839.3,5.00,000.00,024.1,022.5,000.0,032.6,025.8,15.4,0004.4,0004.32,0007.46,0003.99
2023-10-15 13:39:00,SystemResetWarning,0839.3,5.00,000.00,024.1,022.5,000.0,032.6,025.8,15.3,0001.6,0004.30,0007.46,0003.97
2023-10-15 13:40:00,SystemResetWarning,0839.3,5.00,000.00,024.1,022.5,000.0,032.6,025.8,15.3,0000.0,0004.27,0007.31,0003.96
2023-10-15 13:41:00,SystemResetWarning,0839.4,5.00,000.00,024.1,022.5,000.0,032.6,025.8,15.4,0000.0,0004.26,0007.27,0003.94
2023-10-15 13:42:00,SystemResetWarning,0839.4,5.00,000.00,024.1,022.5,000.0,032.6,025.7,15.4,0000.0,0004.23,0007.23,0003.90
2023-10-15 13:43:00,SystemResetWarning,0839.4,5.00,000.00,024.1,022.5,000.0,032.6,025.7,15.4,0000.0,0004.18,0007.11,0003.87
2023-10-15 13:44:00,SystemResetWarning,0839.3,5.00,000.00,024.1,022.5,000.0,032.6,025.7,15.4,0001.5,0004.20,0008.30,0003.88
2023-10-15 13:45:00,SystemResetWarning,0839.3,5.00,000.00,024.1,022.5,000.0,032.6,025.7,15.4,0000.0,0004.26,0008.67,0003.92
2023-10-15 13:46:00,SystemResetWarning,0839.4,5.00,000.00,024.1,022.5,000.0,032.6,025.7,15.4,0000.0,0004.27,0008.70,0003.93
2023-10-15 13:47:00,SystemResetWarning,0839.4,5.00,000.00,024.1,022.5,000.0,032.6,025.7,15.4,0000.0,0004.27,0008.69,0003.92
2023-10-15 13:48:00,SystemResetWarning,0839.5,5.00,000.00,024.1,022.5,000.0,032.6,025.7,15.3,0000.0,0004.19,0008.56,0003.84
2023-10-15 13:49:00,SystemResetWarning,0839.5,5.00,000.00,024.1,022.5,000.0,032.6,025.7,15.5,0000.0,0004.05,0008.27,0003.73
2023-10-15 13:50:00,SystemResetWarning,0839.5,5.00,000.00,024.1,022.6,000.0,032.6,025.8,15.7,0000.0,0003.93,0008.02,0003.66
2023-10-15 13:51:00,SystemResetWarning,0839.6,4.99,000.00,024.1,022.6,000.0,032.5,025.8,15.8,0000.0,0003.88,0007.92,0003.60
2023-10-15 13:52:00,SystemResetWarning,0839.6,5.00,000.00,024.1,022.7,000.0,032.6,025.9,15.7,0000.0,0003.82,0007.78,0003.55
2023-10-15 13:53:00,SystemResetWarning,0839.7,5.00,000.00,024.1,022.7,000.0,032.6,025.8,15.4,0000.0,0003.74,0007.63,0003.49
2023-10-15 13:54:00,SystemResetWarning,0839.6,5.00,000.00,024.1,022.7,000.0,032.6,025.9,15.4,0000.0,0003.69,0007.54,0003.43
2023-10-15 13:55:00,SystemResetWarning,0839.6,5.00,000.00,024.1,022.7,000.0,032.6,025.9,15.3,0000.0,0003.62,0006.14,0003.37
2023-10-15 13:56:00,SystemResetWarning,0839.6,5.00,000.00,024.1,022.7,000.0,032.6,025.9,15.3,0000.0,0003.49,0004.86,0003.26
2023-10-15 13:57:00,SystemResetWarning,0839.6,5.00,000.00,024.1,022.7,000.0,032.6,025.9,15.4,0000.0,0003.37,0004.45,0003.17
2023-10-15 13:58:00,SystemResetWarning,0839.6,5.00,000.00,024.1,022.7,000.0,032.6,025.9,15.5,0000.0,0003.25,0004.10,0003.06
2023-10-15 13:59:00,SystemResetWarning,0839.6,5.00,000.00,024.2,022.7,000.0,032.6,025.9,15.4,0000.0,0003.20,0003.91,0003.01
